Weather History for Stanton, MN

Change the Weather History Date:

Monday, June 9, 2014

  Actual Average (KLVN) Record (KLVN)
Temperature  
Mean Temperature 64 °F -  
Max Temperature 70 °F 77 °F 95 °F (1973)
Min Temperature 58 °F 55 °F 44 °F (1987)
Degree Days  
Heating Degree Days 1    
Growing Degree Days 14 (Base 50)    
Moisture  
Dew Point 53 °F    
Average Humidity 70    
Maximum Humidity 87    
Minimum Humidity 52    
Precipitation  
Precipitation 0.00 in - - ()
Sea Level Pressure  
Sea Level Pressure 30.00 in    
Wind  
Wind Speed 3 mph (NE)    
Max Wind Speed 9 mph    
Max Gust Speed -    
Visibility 10 miles    
Events Rain    
Averages and records for this station are not official NWS values.
T = Trace of Precipitation, MM = Missing Value Source: NWS Daily Summary

Daily Weather History Graph

Daily Weather History Graph

Search for Another Location

Airport:

Trip Planner

Search our weather history database for the weather conditions in past years. The results will help you decide how hot, cold, wet, or windy it might be!

Date:

Astronomy

Jun. 09, 2014 Rise Set
Actual Time 5:27 AM CDT 8:55 PM CDT
Civil Twilight 4:51 AM CDT 9:32 PM CDT
Nautical Twilight 4:03 AM CDT 10:20 PM CDT
Astronomical Twilight 3:01 AM CDT 11:21 PM CDT
Moon 5:09 PM CDT (6/9) 3:03 AM CDT (6/9)
Length of Visible Light 16h 41m
Length of Day
15h 28m
Waxing Gibbous, 85% of the Moon is Illuminated
Jun 9
Waxing Gibbous
Jun 12
Full
Jun 19
Last Quarter
Jun 27
New
Jul 5
First Quarter

Hourly Weather History & Observations

Time (CDT) Temp. Dew Point Humidity Pressure Visibility Wind Dir Wind Speed Gust Speed Precip Events Conditions
12:12 AM 61.3 °F 54.1 °F 77% 30.04 in 10.0 mi ENE 3.5 mph - N/A   Overcast
12:32 AM 61.2 °F 52.9 °F 74% 30.03 in 10.0 mi ENE 3.5 mph - N/A   Scattered Clouds
12:52 AM 60.8 °F 52.9 °F 75% 30.03 in 10.0 mi ENE 4.6 mph - N/A   Clear
1:12 AM 60.4 °F 52.0 °F 74% 30.02 in 10.0 mi ENE 4.6 mph - N/A   Clear
1:32 AM 59.9 °F 52.7 °F 77% 30.02 in 10.0 mi ENE 4.6 mph - N/A   Clear
1:52 AM 59.9 °F 53.1 °F 78% 30.01 in 10.0 mi ENE 3.5 mph - N/A   Scattered Clouds
2:12 AM 59.7 °F 52.3 °F 77% 30.01 in 10.0 mi Calm Calm - N/A   Mostly Cloudy
2:32 AM 59.9 °F 52.2 °F 76% 30.01 in 10.0 mi Calm Calm - N/A   Overcast
2:52 AM 59.2 °F 52.0 °F 77% 30.01 in 10.0 mi Calm Calm - N/A   Mostly Cloudy
3:12 AM 59.9 °F 51.1 °F 73% 30.00 in 7.0 mi Calm Calm - N/A   Scattered Clouds
3:32 AM 59.0 °F 52.3 °F 79% 30.00 in 10.0 mi Calm Calm - N/A   Scattered Clouds
3:52 AM 59.4 °F 52.9 °F 79% 30.00 in 10.0 mi Calm Calm - N/A   Mostly Cloudy
4:12 AM 59.2 °F 54.0 °F 83% 30.00 in 10.0 mi Calm Calm - N/A   Mostly Cloudy
4:32 AM 58.1 °F 52.7 °F 82% 30.00 in 10.0 mi Calm Calm - N/A   Mostly Cloudy
4:52 AM 58.5 °F 53.8 °F 84% 30.00 in 10.0 mi Calm Calm - N/A   Overcast
5:12 AM 59.0 °F 53.1 °F 81% 30.00 in 10.0 mi Calm Calm - N/A   Overcast
5:32 AM 59.0 °F 53.8 °F 83% 30.01 in 10.0 mi Calm Calm - N/A Rain Light Rain
5:52 AM 58.5 °F 53.8 °F 84% 30.02 in 10.0 mi Calm Calm - N/A   Overcast
6:12 AM 58.5 °F 54.5 °F 87% 30.02 in 10.0 mi Calm Calm - N/A   Overcast
6:32 AM 59.0 °F 54.3 °F 84% 30.02 in 10.0 mi Calm Calm - N/A   Overcast
6:52 AM 59.2 °F 52.7 °F 79% 30.02 in 10.0 mi Calm Calm - N/A   Light Drizzle
7:12 AM 59.5 °F 53.1 °F 79% 30.02 in 10.0 mi Calm Calm - N/A   Overcast
7:32 AM 59.4 °F 52.7 °F 79% 30.03 in 10.0 mi North 4.6 mph - N/A   Overcast
7:52 AM 59.5 °F 52.2 °F 77% 30.03 in 10.0 mi North 3.5 mph - N/A   Overcast
8:12 AM 59.9 °F 52.0 °F 75% 30.04 in 10.0 mi NW 3.5 mph - N/A   Overcast
8:32 AM 59.9 °F 51.8 °F 75% 30.05 in 10.0 mi North 3.5 mph - N/A   Overcast
8:52 AM 60.1 °F 52.0 °F 75% 30.04 in 10.0 mi North 5.8 mph - N/A   Overcast
9:12 AM 60.6 °F 51.8 °F 73% 30.03 in 10.0 mi NNE 6.9 mph - N/A   Overcast
9:32 AM 61.5 °F 51.4 °F 69% 30.04 in 10.0 mi North 8.1 mph - N/A   Overcast
10:12 AM 61.5 °F 50.9 °F 68% 30.05 in 10.0 mi NNE 9.2 mph - N/A   Overcast
10:32 AM 61.7 °F 51.3 °F 69% 30.05 in 10.0 mi NNE 5.8 mph - N/A   Overcast
10:52 AM 63.0 °F 51.6 °F 66% 30.03 in 10.0 mi NE 5.8 mph - N/A   Overcast
11:32 AM 65.3 °F 50.5 °F 59% 30.02 in 10.0 mi NE 8.1 mph - N/A   Scattered Clouds
11:52 AM 66.0 °F 50.0 °F 56% 30.03 in 10.0 mi ENE 8.1 mph - N/A   Clear
12:12 PM 66.6 °F 51.1 °F 57% 30.03 in 10.0 mi NE 6.9 mph - N/A   Mostly Cloudy
12:32 PM 65.5 °F 50.7 °F 59% 30.03 in 10.0 mi NE 9.2 mph - N/A   Overcast
12:52 PM 65.5 °F 50.5 °F 58% 30.02 in 10.0 mi NE 8.1 mph - N/A   Overcast
1:12 PM 67.3 °F 51.8 °F 58% 30.01 in 10.0 mi ENE 8.1 mph - N/A   Overcast
1:32 PM 67.1 °F 51.4 °F 57% 30.01 in 10.0 mi NNE 8.1 mph - N/A   Overcast
3:12 PM 69.4 °F 52.0 °F 54% 29.99 in 10.0 mi NNE 6.9 mph - N/A   Mostly Cloudy
3:32 PM 69.4 °F 52.3 °F 54% 29.98 in 10.0 mi NNE 6.9 mph - N/A   Overcast
3:52 PM 69.8 °F 51.4 °F 52% 29.98 in 10.0 mi NNE 5.8 mph - N/A   Overcast
4:12 PM 70.3 °F 52.2 °F 52% 29.98 in 10.0 mi NNE 4.6 mph - N/A   Overcast
4:32 PM 70.2 °F 51.8 °F 52% 29.98 in 10.0 mi NNE 6.9 mph - N/A   Overcast
4:52 PM 70.3 °F 52.2 °F 52% 29.98 in 10.0 mi NE 8.1 mph - N/A   Overcast
5:12 PM 70.5 °F 52.3 °F 52% 29.98 in 10.0 mi NNE 8.1 mph - N/A   Mostly Cloudy
5:32 PM 70.7 °F 53.1 °F 54% 29.98 in 10.0 mi NE 5.8 mph - N/A   Mostly Cloudy
5:52 PM 70.3 °F 53.1 °F 54% 29.98 in 10.0 mi NE 6.9 mph - N/A   Overcast
6:12 PM 70.0 °F 53.1 °F 55% 29.97 in 10.0 mi East 6.9 mph - N/A   Overcast
6:32 PM 69.4 °F 52.3 °F 54% 29.97 in 10.0 mi NE 5.8 mph - N/A   Overcast
6:52 PM 69.1 °F 53.1 °F 57% 29.98 in 10.0 mi NE 4.6 mph - N/A   Overcast
7:12 PM 68.9 °F 52.3 °F 55% 29.97 in 10.0 mi NE 6.9 mph - N/A   Overcast
7:32 PM 68.5 °F 52.5 °F 57% 29.97 in 10.0 mi NNE 5.8 mph - N/A   Overcast
7:52 PM 68.2 °F 53.6 °F 60% 29.96 in 10.0 mi NE 4.6 mph - N/A   Overcast
8:12 PM 67.1 °F 54.1 °F 63% 29.96 in 10.0 mi NE 4.6 mph - N/A   Overcast
8:32 PM 65.8 °F 54.3 °F 66% 29.96 in 10.0 mi NE 4.6 mph - N/A   Mostly Cloudy
8:52 PM 64.0 °F 55.0 °F 73% 29.96 in 10.0 mi NE 3.5 mph - N/A   Clear
9:12 PM 64.2 °F 53.8 °F 69% 29.97 in 10.0 mi Calm Calm - N/A   Clear
9:32 PM 63.3 °F 55.4 °F 75% 29.97 in 10.0 mi Calm Calm - N/A   Scattered Clouds
9:52 PM 63.3 °F 54.5 °F 73% 29.98 in 10.0 mi Calm Calm - N/A   Mostly Cloudy
10:12 PM 62.8 °F 54.7 °F 75% 29.98 in 10.0 mi Calm Calm - N/A   Scattered Clouds
10:32 PM 61.7 °F 55.0 °F 79% 29.98 in 10.0 mi Calm Calm - N/A   Clear
10:52 PM 60.1 °F 55.0 °F 83% 29.97 in 10.0 mi Calm Calm - N/A   Clear
11:12 PM 59.0 °F 54.0 °F 83% 29.97 in 10.0 mi Calm Calm - N/A   Clear
11:32 PM 59.0 °F 54.0 °F 83% 29.97 in 10.0 mi Calm Calm - N/A   Clear
11:52 PM 58.1 °F 54.0 °F 86% 29.97 in 10.0 mi Calm Calm - N/A   Clear